www.pogodaiklimat.ru

Погода и климат >> Архив погоды >> Финляндия >> Салла Наруска


ПОГОДА в Салла Наруска

  • Прогноз погоды в Салла Наруска
  • Монитор погоды в Салла Наруска

АРХИВ ПОГОДЫ в Салла Наруска

Время (UTC), дата Ветер
(напр.,м/с)
 
Видим.   Явления Облачность Т
(С)
Тd
(С)
f
(%)
Тe
(С)
Тes
(С)
Комфортность P
(гПа)
Po
(гПа)
Тmin
(С)
Tmax
(С)
R
(мм)
R24
(мм)
S
(см)
19 11.09 Ю 3-10
{10}
н/о н/о +14.1 +13.8 98 +13 +13 1009.8 984.3 7
20 11.09 ЮВ 1-3
{7}
н/о н/о +12.8 +12.8 100 +13 +13 1009.2 983.5 3
21 11.09 Ю 1-2
{2}
н/о н/о +10.5 +10.5 100 +10 +10 1008.6 982.8
22 11.09 штиль 0 н/о н/о +9.3 +9.3 100 +8 +8 1008.2 982.3
23 11.09 штиль 0 н/о н/о +8.9 +8.9 100 +8 +8 1007.8 981.8
00 12.09 штиль 0
{1}
н/о н/о +9.0 +9.0 100 +8 +8 1007.1 981.2
01 12.09 штиль 0-1
{2}
н/о н/о +9.3 +9.3 100 +8 +8 1006.6 980.7
02 12.09 штиль 0-2
{2}
н/о н/о +10.0 +10.0 100 +9 +9 1006.2 980.4
03 12.09 Ю 1-3
{3}
н/о н/о +11.7 +11.7 100 +11 +11 1005.3 979.6
04 12.09 Ю 2 н/о н/о +11.8 +11.8 100 +11 +11 1005.0 979.4
05 12.09 ЮВ 1-4
{4}
н/о н/о +11.8 +11.8 100 +11 +11 1004.5 978.9
06 12.09 ЮВ 1-3
{4}
н/о н/о +12.4 +12.0 97 +12 +12 1003.8 978.3 +8.7 +15.3 9
07 12.09 ЮВ 2 н/о н/о +12.6 +12.4 99 +12 +12 1003.5 978.0
08 12.09 Ю 2 н/о н/о +12.7 +12.4 98 +12 +12 1003.2 977.7
09 12.09 Ю 2-3
{4}
н/о н/о +13.3 +12.8 97 +12 +12 1002.7 977.3
10 12.09 Ю 2-4
{4}
н/о н/о +13.8 +13.1 96 +13 +13 1002.4 977.0
11 12.09 ЮЗ 3 н/о н/о +14.1 +13.0 93 +13 +13 1001.9 976.6
12 12.09 Ю 2-5
{8}
н/о н/о +13.7 +13.0 96 +13 +13 1002.0 976.6 2
13 12.09 Ю 2 н/о н/о +13.6 +12.0 90 +13 +13 1001.6 976.2
14 12.09 Ю 3 н/о н/о +13.2 +11.7 91 +12 +12 1001.1 975.7
15 12.09 Ю 2-5
{5}
н/о н/о +12.5 +12.2 98 +11 +11 1000.4 974.9
16 12.09 Ю 2 н/о н/о +12.5 +12.1 97 +11 +11 999.8 974.4
17 12.09 ЮВ 2-4
{5}
н/о н/о +12.2 +12.2 100 +11 +11 999.2 973.7 0.1
18 12.09 ЮЗ 3 н/о н/о +11.6 +11.5 99 +10 +10 998.9 973.4 +11.5 +14.5 11
19 12.09 Ю 1 н/о н/о +11.4 +11.4 100 +11 +11 998.6 973.1
20 12.09 ЮЗ 2 н/о н/о +11.4 +11.4 100 +10 +10 998.2 972.7
21 12.09 ЮЗ 3-5
{5}
н/о н/о +11.2 +11.2 100 +9 +9 998.1 972.6
22 12.09 ЮЗ 3 н/о н/о +11.1 +11.1 100 +9 +9 998.1 972.5
23 12.09 ЮЗ 2 н/о н/о +10.8 +10.8 100 +9 +9 998.1 972.5
00 13.09 ЮЗ 2-3
{5}
н/о н/о +10.4 +10.4 100 +9 +9 998.3 972.7
01 13.09 Ю 1 н/о н/о +10.0 +10.0 100 +9 +9 998.2 972.6
02 13.09 Ю 1-3
{3}
н/о н/о +10.0 +10.0 100 +9 +9 997.8 972.2 0.6
03 13.09 штиль 0-1
{8}
н/о н/о +8.0 +8.0 100 +7 +7 997.9 972.2 6
04 13.09 ЮЗ 3 н/о н/о +9.5 +9.5 100 +7 +7 998.0 972.3
05 13.09 ЮЗ 3 н/о н/о +8.8 +8.7 99 +6 +6 998.1 972.3
06 13.09 ЮЗ 2-5
{5}
н/о н/о +8.8 +8.6 99 +7 +7 998.3 972.6 +7.9 +11.6 9
07 13.09 ЮЗ 3-5
{5}
н/о н/о +8.9 +8.4 97 +6 +6 998.4 972.6
08 13.09 ЮЗ 3-6
{6}
н/о н/о +9.6 +8.7 94 +7 +7 998.4 972.7
09 13.09 ЮЗ 3-5
{6}
н/о н/о +10.5 +8.2 86 +8 +8 998.4 972.8
10 13.09 З 2-4
{5}
н/о н/о +10.8 +8.1 83 +9 +9 998.5 973.0
11 13.09 ЮЗ 2 н/о н/о +11.0 +8.6 85 +10 +10 998.6 973.0
12 13.09 ЮЗ 3-4
{6}
н/о н/о +10.0 +8.8 92 +8 +8 998.8 973.2
13 13.09 ЮЗ 2 н/о н/о +10.3 +9.0 92 +9 +9 998.8 973.2
14 13.09 СЗ 2 н/о н/о +10.0 +8.7 92 +8 +8 998.9 973.2
15 13.09 З 2-5
{5}
н/о н/о +8.5 +8.0 97 +6 +6 999.4 973.7 5
16 13.09 З 1 н/о н/о +8.1 +8.1 100 +7 +7 999.5 973.7
17 13.09 С 2 н/о н/о +7.6 +7.5 99 +5 +5 999.8 974.0
18 13.09 штиль 0-1
{2}
н/о н/о +6.8 +6.8 100 +6 +6 1000.3 974.3 +6.8 +11.5 8
19 13.09 З 1-2
{2}
н/о н/о +6.8 +6.8 100 +6 +6 1000.3 974.3 2
20 13.09 штиль 0-2
{2}
н/о н/о +6.6 +6.5 99 +5 +5 1000.5 974.5 4
21 13.09 штиль 0-1
{4}
н/о н/о +6.0 +6.0 100 +5 +5 1000.8 974.7 5
22 13.09 С 4 н/о н/о +6.1 +5.8 98 +2 +2 1001.2 975.2
23 13.09 С 3 н/о н/о +5.3 +5.0 98 +2 +2 1002.0 975.8
00 14.09 С 2-3
{7}
н/о н/о +4.8 +4.8 100 +2 +2 1002.5 976.3 2
01 14.09 С 2 н/о н/о +5.3 +5.3 100 +2 +2 1002.9 976.7
02 14.09 С 2-4
{5}
н/о н/о +5.1 +4.8 98 +2 +2 1003.5 977.3
03 14.09 С 2-5
{6}
н/о н/о +4.6 +4.2 97 +2 +2 1004.0 977.8
04 14.09 С 2 н/о н/о +4.4 +4.1 98 +1 +1 1004.5 978.2
05 14.09 С 3-6
{6}
н/о н/о +4.6 +3.7 94 +1 +1 1004.8 978.5
06 14.09 С 3-5
{6}
н/о н/о +5.0 +4.0 93 +1 +1 1005.4 979.1 +4.4 +6.9 21
07 14.09 С 3-7
{7}
н/о н/о +5.3 +4.0 91 +2 +2 1005.7 979.5
08 14.09 С 3 н/о н/о +5.8 +3.8 87 +2 +2 1006.2 980.0
09 14.09 С 4-7
{7}
н/о н/о +6.1 +3.8 85 +2 +2 1006.9 980.7
10 14.09 С 3 н/о н/о +7.4 +3.8 78 +5 +5 1007.2 981.2
11 14.09 С 4 н/о н/о +7.8 +3.0 72 +5 +5 1007.7 981.7
12 14.09 С 3-5
{6}
н/о н/о +8.3 +2.3 66 +6 +6 1008.1 982.1
13 14.09 С 3-7
{7}
н/о н/о +9.4 +2.5 62 +7 +7 1008.1 982.2
14 14.09 С 2 н/о н/о +8.5 +1.1 60 +7 +7 1008.5 982.5
15 14.09 С 2-3
{4}
н/о н/о +8.4 +2.0 64 +7 +7 1008.6 982.6
16 14.09 штиль 0 н/о н/о +6.2 +3.3 82 +5 +5 1008.8 982.5
17 14.09 штиль 0 н/о н/о +1.7 +1.5 99 0 0 1009.2 982.6
18 14.09 штиль 0 н/о н/о -0.9 -1.0 99 -2 -2 1009.4 982.4 -0.9 +9.8
19 14.09 штиль 0 н/о н/о -1.8 -1.8 100 -3 -3 1009.4 982.3
20 14.09 штиль 0-2
{2}
н/о н/о -2.5 -2.5 100 -4 -4 1009.2 982.1
21 14.09 штиль 0
{2}
н/о н/о -2.9 -2.9 100 -4 -4 1009.1 981.9
22 14.09 штиль 0 н/о н/о -3.3 -3.3 100 -5 -5 1008.9 981.8
23 14.09 штиль 0 н/о н/о -3.8 -3.8 100 -5 -5 1008.6 981.4
00 15.09 С 1-2
{2}
н/о н/о -4.2 -4.2 100 -7 -7 1008.0 980.8
01 15.09 штиль 0
{1}
н/о н/о -4.3 -4.3 100 -6 -6 1008.2 980.9
02 15.09 штиль 0 н/о н/о -5.2 -5.4 98 -6 -6 1007.4 980.1
03 15.09 С 2-2
{2}
н/о н/о -4.8 -4.8 100 -9 -9 1006.2 979.0
04 15.09 С 1-2
{2}
н/о н/о -4.7 -4.8 99 -7 -7 1005.8 978.5
05 15.09 С 1-2
{3}
н/о н/о -3.7 -3.8 99 -6 -6 1005.0 977.9
06 15.09 С 1-2
{3}
н/о н/о -0.6 -0.6 100 -3 -3 1003.6 976.8 -5.2 -0.6
07 15.09 С 1-2
{3}
н/о н/о +1.2 +0.9 98 -1 -1 1002.8 976.3
08 15.09 С 1 н/о н/о +4.7 +2.8 87 +3 +3 1001.8 975.6
09 15.09 В 2-4
{4}
н/о н/о +7.8 0.0 58 +6 +6 1000.6 974.7
10 15.09 В 2 н/о н/о +7.8 -0.1 57 +6 +6 999.8 973.9
11 15.09 В 3 н/о н/о +8.6 +0.6 57 +6 +6 998.9 973.2
12 15.09 В 3-5
{6}
н/о н/о +8.9 -0.2 53 +7 +7 998.0 972.3
13 15.09 В 3-6
{6}
н/о н/о +9.1 +0.7 56 +7 +7 997.3 971.7
14 15.09 СВ 3-5
{6}
н/о н/о +8.0 -0.4 55 +6 +6 996.8 971.1
15 15.09 СВ 3-6
{6}
н/о н/о +7.8 -0.1 57 +5 +5 996.3 970.6
16 15.09 СВ 2 н/о н/о +6.4 0.0 64 +4 +4 996.2 970.3
17 15.09 штиль 0-1
{3}
н/о н/о +1.4 +0.2 92 0 0 996.2 969.9
18 15.09 штиль 0 н/о н/о -1.3 -1.4 99 -3 -3 996.1 969.5 -1.3 +9.6
19 15.09 штиль 0 н/о н/о -1.7 -1.8 99 -3 -3 995.8 969.1
20 15.09 СВ 2 н/о н/о +0.9 +0.8 99 -3 -3 995.0 968.6
21 15.09 СВ 1-2
{3}
н/о н/о +1.2 +0.8 97 -1 -1 994.6 968.2
22 15.09 С 1-3
{3}
н/о н/о +2.1 +1.4 95 0 0 994.2 968.0
23 15.09 С 2 н/о н/о +3.0 +1.9 92 -0 -0 993.7 967.6
00 16.09 С 2-4
{4}
н/о н/о +2.4 +1.9 96 -1 -1 993.2 967.0
01 16.09 С 2-5
{6}
н/о н/о +3.1 +2.5 96 -0 -0 992.8 966.7
02 16.09 С 3-4
{5}
н/о н/о +3.1 +3.1 100 -1 -1 992.7 966.6 0.2
03 16.09 С 2-5
{6}
н/о н/о +3.4 +3.4 100 0 0 992.5 966.4 0.1
04 16.09 С 2 н/о н/о +3.6 +3.6 100 0 0 992.4 966.3
05 16.09 С 2 н/о н/о +4.0 +3.9 99 +1 +1 992.3 966.2
06 16.09 С 2-4
{4}
н/о н/о +4.8 +4.8 100 +2 +2 992.2 966.3 -1.9 +4.8 1
07 16.09 С 1-3
{4}
н/о н/о +5.5 +5.5 100 +4 +4 992.4 966.6
08 16.09 С 2-3
{5}
н/о н/о +6.4 +6.4 100 +4 +4 992.7 966.9 0.1
09 16.09 С 2-5
{5}
н/о н/о +7.0 +6.3 95 +5 +5 993.0 967.3
10 16.09 С 2-4
{5}
н/о н/о +7.4 +6.0 91 +5 +5 993.3 967.6
11 16.09 СВ 2 н/о н/о +8.0 +4.7 80 +6 +6 993.7 968.0
12 16.09 СВ 4-8
{8}
н/о н/о +7.0 +4.8 86 +3 +3 994.5 968.7
13 16.09 С 3 н/о н/о +7.7 +5.1 84 +5 +5 994.6 968.9
14 16.09 С 2 н/о н/о +7.3 +6.0 91 +5 +5 994.9 969.1
15 16.09 С 2-4
{6}
н/о н/о +7.2 +5.3 88 +5 +5 995.2 969.4
16 16.09 С 2 н/о н/о +7.2 +4.6 84 +5 +5 995.3 969.5
17 16.09 С 2 н/о н/о +6.7 +4.8 88 +4 +4 995.6 969.8
18 16.09 СВ 2-4
{4}
н/о н/о +6.2 +4.8 91 +4 +4 995.8 969.9 +4.8 +9.5 0.6
19 16.09 СВ 2-3
{4}
н/о н/о +6.1 +4.8 91 +4 +4 995.9 970.0
20 16.09 СВ 1-3
{4}
н/о н/о +6.2 +4.9 91 +5 +5 996.0 970.1
21 16.09 СВ 2-4
{4}
н/о н/о +6.2 +4.9 91 +4 +4 996.3 970.4
22 16.09 СВ 2 н/о н/о +6.1 +4.8 91 +4 +4 996.7 970.7
23 16.09 штиль 0-2
{3}
н/о н/о +5.5 +4.5 93 +4 +4 997.1 971.1
00 17.09 СВ 1-2
{3}
н/о н/о +5.4 +4.4 93 +4 +4 997.4 971.4
01 17.09 СЗ 1-1
{2}
н/о н/о +4.7 +4.3 97 +3 +3 997.8 971.7
02 17.09 СВ 2-3
{3}
н/о н/о +5.0 +4.0 93 +2 +2 998.0 971.9
03 17.09 СВ 1 н/о н/о +4.6 +4.3 98 +3 +3 998.3 972.2
04 17.09 СВ 2 н/о н/о +4.0 +2.8 92 +1 +1 998.8 972.6
05 17.09 СВ 2 н/о н/о +4.0 +2.1 87 +1 +1 999.2 973.0
06 17.09 СВ 3-6
{7}
н/о н/о +4.9 +1.6 79 +2 +2 999.5 973.4 +3.7 +6.3 0.3
07 17.09 СВ 4-7
{7}
н/о н/о +5.7 +1.3 73 +2 +2 999.8 973.7
08 17.09 С 4-6
{7}
н/о н/о +6.5 +1.2 69 +3 +3 1000.0 974.0
09 17.09 СВ 3-9
{9}
н/о н/о +6.5 0.0 63 +4 +4 1000.8 974.8
10 17.09 С 2 н/о н/о +6.7 +0.2 63 +5 +5 1001.0 975.0
11 17.09 С 4 н/о н/о +7.1 +0.7 64 +4 +4 1001.4 975.4
12 17.09 СВ 3-6
{7}
н/о н/о +6.2 +0.2 65 +3 +3 1001.9 975.8
13 17.09 СВ 3-7
{7}
н/о н/о +6.5 +0.1 64 +4 +4 1002.1 976.1
14 17.09 С 2 н/о н/о +7.6 -0.6 56 +6 +6 1002.1 976.2
15 17.09 СВ 3-7
{6}
н/о н/о +6.8 -1.5 55 +4 +4 1002.6 976.6
16 17.09 С 1 н/о н/о +4.8 -0.5 69 +4 +4 1003.2 977.0
17 17.09 СВ 1-2
{5}
н/о н/о +2.1 -0.1 85 0 0 1003.9 977.4
18 17.09 С 1-2
{4}
н/о н/о -0.3 -0.9 96 -3 -3 1004.5 977.7 -0.3 +8.8
19 17.09 СВ 1 н/о н/о -1.7 -1.8 99 -4 -4 1004.8 977.9
20 17.09 СВ 1 н/о н/о -2.2 -2.2 100 -5 -5 1005.4 978.4
21 17.09 штиль 0-1
{2}
н/о н/о -2.8 -2.8 100 -4 -4 1006.0 979.0
22 17.09 штиль 0 н/о н/о -3.0 -3.0 100 -4 -4 1006.4 979.3
23 17.09 В 1 н/о н/о -2.8 -2.8 100 -5 -5 1006.5 979.5
00 18.09 СВ 1-2
{2}
н/о н/о -3.4 -3.4 100 -6 -6 1006.8 979.7
01 18.09 СЗ 1-1
{3}
н/о н/о -3.3 -3.3 100 -6 -6 1007.0 979.9
02 18.09 СЗ 1 н/о н/о -3.9 -4.0 99 -6 -6 1007.2 980.1
03 18.09 штиль 0-1
{1}
н/о н/о -5.3 -5.5 98 -6 -6 1007.7 980.4
04 18.09 штиль 0 н/о н/о -5.7 -6.0 98 -7 -7 1007.9 980.5
05 18.09 штиль 0
{1}
н/о н/о -5.0 -5.1 99 -6 -6 1008.1 980.8
06 18.09 штиль 0-1
{1}
н/о н/о -1.6 -1.6 100 -3 -3 1008.1 981.1 -5.8 -0.3
07 18.09 С 1-1
{2}
н/о н/о +0.5 +0.4 99 -2 -2 1008.3 981.5
08 18.09 СЗ 1-2
{2}
н/о н/о +3.0 +0.4 83 +2 +2 1008.2 981.7
09 18.09 СЗ 2-4
{4}
н/о н/о +3.6 -0.6 74 +1 +1 1008.5 982.0
10 18.09 С 2 н/о н/о +5.0 -1.1 65 +3 +3 1008.5 982.2
11 18.09 С 2-7
{7}
н/о н/о +6.3 -1.0 60 +4 +4 1008.4 982.2
12 18.09 СЗ 3-6
{6}
н/о н/о +5.5 -2.5 56 +3 +3 1008.7 982.4
13 18.09 С 4 н/о н/о +5.4 -3.0 55 +2 +2 1008.8 982.5
14 18.09 С 3 н/о н/о +5.4 -3.0 55 +3 +3 1008.8 982.5
15 18.09 С 2-4
{5}
н/о н/о +5.8 -2.5 55 +4 +4 1008.8 982.5
16 18.09 штиль 0 н/о н/о +1.7 -2.2 75 +1 +1 1009.4 982.7
18 18.09 штиль 0 н/о н/о -3.3 -3.6 98 -5 -5 1010.3 983.1 -3.3 +7.3
19 18.09 штиль 0 н/о н/о -4.0 -4.1 99 -5 -5 1010.4 983.2

 

Местоположение метеостанции Салла Наруска (Финляндия): широта 67.16 долгота 29.18 высота над уровнем моря 213 м.

В архиве по умолчанию представлена погода в Салла Наруска за последнюю неделю. Архивные данные за месяц целиком и за предыдущие месяцы, начиная с января 2011 года, Вы можете получить, выбрав интересующий диапазон дат из раскрывающегося списка и нажав кнопку "Ввод!".


*Определитесь, кто Вы:
робот инопланетянин человек

Внимание! Время в таблицах - всемирное. Для получения местного времени необходимо прибавить поправку, которая равна 1 ч.

Смотрите также архив погоды в соседних городах и на ближайших метеорологических станциях:

Погода в Салле (Финляндия) (43 км)
Погода в Савукоски (Финляндия) (45 км)
Погода в Алакуртти (Мурманская область, Россия) (57 км)
Погода в Салла Варриотунтури (Финляндия) (68 км)
Погода в Ковдоре (Мурманская область, Россия) (71 км)
Погода в Пюхе (Финляндия) (86 км)
Погода в Куусамо Киутаконгас (Финляндия) (88 км)
Погода в Оуланке (Финляндия) (94 км)
Погода в Соданкила Локка (Финляндия) (95 км)
Погода на Аэродроме Кемиярви (Финляндия) (101 км)

Пояснения к столбцам:

Ветер - указаны скорость ветра в м/с - средняя за 10 мин, порывы в срок и между сроками (в фигурных скобках) и направление, откуда дует ветер: С - северный, СВ - северо-восточный, В - восточный, ЮВ - юго-восточный, Ю - южный, ЮЗ - юго-западный, З - западный, СЗ - северо-западный.
Видимость - горизонтальная дальность видимости в метрах или километрах. При видимости от 1 до 10 км при отсутствии осадков обычно наблюдается дымка, при ухудшении видимости до 1 км и менее - туман. В сухую погоду видимость может ухудшаться дымом, пылью или мглою.
Явления - указаны атмосферные явления, наблюдавшиеся в срок или в последний час перед сроком; фигурными скобками обозначены явления, наблюдавшиеся между сроками (за 1-3 часа до срока); квадратными скобками обозначены град или гололедные отложения с указанием их диаметра в мм.
Облачность - указаны через наклонную черту общая и нижняя облачность в баллах и высота нижней границы облаков в метрах; квадратными скобками обозначены формы облаков: Ci - перистые, Cs - перисто-слоистые, Cc - перисто-кучевые, Ac - высококучевые, As - высокослоистые, Sc - слоисто-кучевые, Ns - слоисто-дождевые, Cu - кучевые, Cb - кучево-дождевые. Подробнее классификацию облаков см. в Атласе облаков (PDF).
T - Температура воздуха - температура, измеренная на высоте 2 м над землей.
Td - Температура точки росы - температура, при понижении до которой содержащийся в воздухе водяной пар достигнет насыщения.
f - Относительная влажность воздуха - влажноcть воздуха, измеренная на высоте 2 м над землей.
Te - Эффективная температура - температура, которую ощущает одетый по сезону человек в тени. Характеристика душности погоды. При расчете учитывается влияние влажности воздуха и скорости ветра на теплоощущения человека.
Tes - Эффективная температура на солнце - температура, которую ощущает человек, с поправкой на солнечный нагрев. Характеристика знойности погоды. Зависит от высоты солнца над горизонтом, облачности и скорости ветра. Ночью, в пасмурную погоду, а также при ветре 12 м/с и более поправка равна нулю.
P - Атмосферное давление - приведенное к уровню моря атмосферное давление.
Po - Атмосферное давление - измеренное на уровне метеостанции атмосферное давление.
Tmin - Минимальная температура - минимум температуры воздуха на высоте 2 м над землей.
Tmax - Максимальная температура - максимум температуры воздуха на высоте 2 м над землей.
R - Количество осадков - Количество выпавших осадков за период времени, мм. При наведении курсора мыши на число - период времени, за который выпало указанное количество осадков.
R24 - Количество осадков - Количество выпавших осадков за 24 часа, мм.
S - Снежный покров - Высота снежного покрова, см. При наведении курсора мыши на число - состояние снежного покрова и степень покрытия местности в баллах.